COSMOS 2539

导读

COSMOS 2539(宇宙2539)是独联体(CIS,实际为俄罗斯)发射的“宇宙”系列卫星,于2019年8月5日8时发射入轨。该卫星归属俄罗斯军方航天项目,延续了“宇宙”系列开展空间技术试验、在轨环境观测的任务定位,是俄罗斯验证空间态势感知、航天器在轨维护技术的试验平台之一,服务于俄航天领域技术积累与空间安全能力建设。

基本信息
目录编号:
44457
目录名称:
COSMOS 2539
国际标识:
2019-048A
轨道中心:
EARTH
卫星名称:
COSMOS 2539
卫星全名:
--
卫星状态:
在轨 (已飞行2506 天)
发射日期:
2019-08-05 UTC
国别 :
俄罗斯(独联体) (CIS)
星等 :
--
轨道信息
数据来源 国际轨道数据 AOE轨道数据
星历时间 2026-06-15T05:33:01+0800
4小时前
查看轨道信息
2026-06-13T12:00:00+0800
1天前
查看轨道信息
半长轴 42165.093km 42165.513km
偏心率 0.000039 0.0000136
轨道倾角 0.037° 0.037°
近地点辐角 344.228° 330.451°
升交点赤经 90.121° 90.191°
平近点角 164.089° 272.848°
近地点 35785.311km 35786.802km
远地点 35788.601km 35787.95km
周期 1436.115分钟 1436.137分钟
每日圈数 1.002705 1.00269
详细信息
使用方式:
暂无
2D轨道图
3D轨道图
轨道高度分析图
轨道倾角分析图
轨道综合分析图
查看轨道综合分析图